Location: Kuffner-Sternwarte
(48.2130°N, 16.2960°E)
Time: 15:20:54
(UTC+02:00)

COROT - Pass Details

Date: 29 March 2017
Orbit: 600 x 890 km, 90.0° (Epoch: 27 March)

Event Time Altitude Azimuth Distance (km) Brightness Sun altitude
Rises 00:50:24 0° 6° (N) 3,137 10.1 -38.4°
Reaches altitude 10° 00:52:42 10° 12° (NNE) 2,256 9.1 -38.4°
Enters shadow 00:54:16 20° 20° (NNE) 1,693 8.2 -38.4°
